Home   Weather   Brønnøysund   Past weeks

Flag for Norway Past Weather in Brønnøysund, Norway — Yesterday and Last 2 Weeks

Now
64 °F

Passing clouds.


Feels Like: 64 °F
Forecast: 58 / 64 °F
Wind: 14 mph from Southeast

Location: Bronnoysund / Bronnoy

Current Time: Aug 17, 2017 at 11:39:53 pm

Latest Report: Aug 17, 2017 at 11:20 pm


Visibility: N/A

Pressure: 29.80 "Hg

Humidity: 60%

Dew Point: 50 °F

Location of BrønnøysundLocation

Past Weather in Brønnøysund — Graph

°F

Brønnøysund Temperature Yesterday

Maximum temperature yesterday: 61 °F (at 4:20 am)
Minimum temperature yesterday: 54 °F (at 12:20 pm)
Average temperature yesterday: 56 °F

High & Low Weather Summary for the Past Weeks

 TemperatureHumidityPressure
High73 °F (Aug 4, 2:50 pm)100% (Aug 2, 11:20 pm)30.15 "Hg (Aug 2, 11:20 pm)
Low48 °F (Aug 13, 1:20 am)41% (Aug 5, 2:50 pm)29.42 "Hg (Aug 12, 2:50 am)
Average58 °F83%29.78 "Hg
* Reported Aug 2 10:20 pm — Aug 17 10:20 pm, Brønnøysund. Weather by CustomWeather, © 2017

Note: Actual official high and low records may vary slightly from our data, if they occured in-between our weather recording intervals... More about our weather records

Advertising

Brønnøysund Weather History for the Previous 24 Hours

Scroll right to see more
 ConditionsComfort  
Time TempWeatherWind HumidityBarometerVisibility
10:20 pm
Thu, Aug 17
64 °FPassing clouds.16 mph60%29.80 "HgN/A
9:50 pm64 °FPassing clouds.14 mph64%29.80 "HgN/A
9:20 pm63 °FPassing clouds.8 mph64%29.80 "HgN/A
8:50 pm63 °FPassing clouds.13 mph68%29.80 "HgN/A
8:20 pm64 °FPassing clouds.10 mph64%29.80 "HgN/A
7:50 pm66 °FPassing clouds.10 mph56%29.80 "HgN/A
7:20 pm68 °FSunny.10 mph49%29.80 "Hg10 mi
6:50 pm66 °FPassing clouds.9 mph60%29.80 "HgN/A
6:20 pm66 °FPassing clouds.6 mph64%29.83 "HgN/A
5:50 pm66 °FPassing clouds.6 mph60%29.83 "HgN/A
5:20 pm68 °FPassing clouds.8 mph60%29.83 "HgN/A
4:50 pm70 °FPassing clouds.9 mph57%29.86 "HgN/A
4:20 pm72 °FPassing clouds.6 mph53%29.86 "HgN/A
3:20 pm68 °FPassing clouds.9 mph56%29.89 "HgN/A
2:50 pm68 °FPassing clouds.8 mph60%29.89 "HgN/A
2:20 pm68 °FPassing clouds.12 mph60%29.89 "HgN/A
1:50 pm70 °FPassing clouds.10 mph60%29.89 "HgN/A
1:20 pm70 °FPassing clouds.8 mph57%29.92 "HgN/A
12:50 pm70 °FSunny.9 mph60%29.92 "Hg10 mi
12:20 pm64 °FPassing clouds.9 mph64%29.92 "HgN/A
11:50 am66 °FPassing clouds.9 mph60%29.92 "HgN/A
11:20 am66 °FSunny.13 mph60%29.95 "Hg10 mi
10:50 am64 °FSunny.12 mph64%29.95 "Hg10 mi
10:20 am64 °FSunny.13 mph68%29.95 "Hg10 mi
9:20 am61 °FPassing clouds.7 mph63%29.98 "HgN/A
8:50 am63 °FPassing clouds.5 mph64%29.98 "HgN/A
8:20 am59 °FSunny.7 mph72%29.98 "Hg10 mi
7:50 am57 °FPassing clouds.6 mph77%29.98 "HgN/A
7:20 am55 °FPassing clouds.6 mph82%29.98 "HgN/A
6:50 am55 °FPassing clouds.8 mph88%29.98 "HgN/A
6:20 am55 °FPassing clouds.8 mph82%29.98 "HgN/A
5:50 am55 °FPartly sunny.8 mph82%29.98 "HgN/A
5:20 am55 °FOvercast.10 mph82%29.98 "HgN/A
4:50 am55 °FMostly cloudy.12 mph88%29.98 "HgN/A
4:20 am55 °FPartly cloudy.13 mph88%29.98 "HgN/A
3:50 am55 °FMostly cloudy.12 mph88%29.98 "HgN/A
3:20 am55 °FPassing clouds.13 mph94%29.98 "HgN/A
2:50 am55 °FPassing clouds.13 mph88%29.98 "HgN/A
1:50 am54 °FPassing clouds.14 mph94%29.98 "HgN/A
1:20 am55 °FPassing clouds.13 mph88%29.95 "HgN/A
12:50 am55 °FPartly cloudy.14 mph88%29.95 "HgN/A
12:20 am55 °FLight rain. Overcast.14 mph88%29.95 "HgN/A
11:50 pm
Wed, Aug 16
55 °FOvercast.14 mph94%29.95 "HgN/A
11:20 pm55 °FMostly cloudy.14 mph94%29.95 "HgN/A
Weather by CustomWeather, © 2017

See weather overviewHow to use our weather pages